When you browse on this site, cookies collect data to enhance your experience and personalize the content and advertising you see.
Visit our Privacy Policy to learn more. By continuing to use the site, you agree to this use of cookies and data.
  • In Norway
  • List of Countries
  • For 7 days
  • Water Temperature
  • Satellite Maps
  • Weather Map
  • Weather Widgets
  • user-avatar
    Login

    Hourly Weather Melbourne

    Today, 25 June, Tuesday

    Time Temperature Precipitation Wind Pressure Humidity
    00:00 +7°C° 0 mm 2 mps 773 mmHg 62%
    01:00 +6°C° 0 mm 2 mps 773 mmHg 61%
    02:00 +6°C° 0 mm 2 mps 773 mmHg 60%
    03:00 +6°C° 0 mm 2 mps 773 mmHg 60%
    04:00 +6°C° 0 mm 2 mps 773 mmHg 60%
    05:00 +6°C° 0 mm 2 mps 773 mmHg 59%
    06:00 +6°C° 0 mm 2 mps 774 mmHg 59%
    07:00 +6°C° 0 mm 2 mps 774 mmHg 58%
    08:00 +7°C° 0 mm 2 mps 774 mmHg 57%
    09:00 +9°C° 0 mm 2 mps 774 mmHg 56%
    10:00 +10°C° 0 mm 2 mps 774 mmHg 54%
    11:00 +12°C° 0 mm 2 mps 774 mmHg 53%
    12:00 +14°C° 0 mm 2 mps 774 mmHg 53%
    13:00 +16°C° 0 mm 2 mps 773 mmHg 52%
    14:00 +15°C° 0 mm 2 mps 773 mmHg 55%
    15:00 +15°C° 0 mm 2 mps 773 mmHg 58%
    16:00 +15°C° 0 mm 2 mps 773 mmHg 61%
    17:00 +14°C° 0 mm 2 mps 773 mmHg 66%
    18:00 +12°C° 0 mm 2 mps 774 mmHg 72%
    19:00 +10°C° 0 mm 2 mps 774 mmHg 77%
    20:00 +9°C° 0 mm 2 mps 774 mmHg 78%
    21:00 +9°C° 0 mm 2 mps 774 mmHg 79%
    22:00 +9°C° 0 mm 2 mps 775 mmHg 81%
    23:00 +8°C° 0 mm 2 mps 774 mmHg 81%

    Tomorrow, 26 June, Wednesday

    Time Temperature Precipitation Wind Pressure Humidity
    00:00 +9°C° 0 mm 1 mps 774 mmHg 81%
    01:00 +9°C° 0 mm 1 mps 774 mmHg 82%
    02:00 +9°C° 0 mm 1 mps 774 mmHg 82%
    03:00 +8°C° 0 mm 1 mps 774 mmHg 82%
    04:00 +8°C° 0 mm 1 mps 774 mmHg 82%
    05:00 +8°C° 0 mm 1 mps 775 mmHg 81%
    06:00 +7°C° 0 mm 2 mps 775 mmHg 80%
    07:00 +7°C° 0 mm 2 mps 775 mmHg 79%
    08:00 +8°C° 0 mm 2 mps 775 mmHg 74%
    09:00 +10°C° 0 mm 2 mps 775 mmHg 68%
    10:00 +12°C° 0 mm 2 mps 775 mmHg 62%
    11:00 +14°C° 0 mm 2 mps 775 mmHg 57%
    12:00 +15°C° 0 mm 2 mps 774 mmHg 52%
    13:00 +17°C° 0 mm 2 mps 773 mmHg 47%
    14:00 +17°C° 0 mm 2 mps 773 mmHg 51%
    15:00 +16°C° 0 mm 2 mps 773 mmHg 54%
    16:00 +16°C° 0 mm 2 mps 773 mmHg 58%
    17:00 +14°C° 0 mm 2 mps 773 mmHg 64%
    18:00 +13°C° 0 mm 2 mps 773 mmHg 70%
    19:00 +10°C° 0 mm 2 mps 774 mmHg 77%
    20:00 +10°C° 0 mm 2 mps 774 mmHg 78%
    21:00 +9°C° 0 mm 3 mps 774 mmHg 79%
    22:00 +9°C° 0 mm 3 mps 774 mmHg 80%
    23:00 +9°C° 0 mm 3 mps 774 mmHg 80%

    Day after tomorrow, 27 June, Thursday

    Time Temperature Precipitation Wind Pressure Humidity
    00:00 +9°C° 0 mm 3 mps 773 mmHg 80%
    01:00 +8°C° 0 mm 3 mps 773 mmHg 80%
    02:00 +8°C° 0 mm 3 mps 773 mmHg 79%
    03:00 +8°C° 0 mm 3 mps 773 mmHg 79%
    04:00 +7°C° 0 mm 4 mps 773 mmHg 78%
    05:00 +7°C° 0 mm 4 mps 773 mmHg 78%
    06:00 +7°C° 0 mm 4 mps 773 mmHg 78%
    07:00 +7°C° 0 mm 4 mps 774 mmHg 78%
    08:00 +9°C° 0 mm 5 mps 774 mmHg 74%
    09:00 +10°C° 0 mm 5 mps 773 mmHg 70%
    10:00 +12°C° 0 mm 5 mps 773 mmHg 65%
    11:00 +13°C° 0 mm 5 mps 773 mmHg 63%
    12:00 +14°C° 0 mm 5 mps 772 mmHg 61%
    13:00 +15°C° 0 mm 5 mps 772 mmHg 59%
    14:00 +15°C° 0 mm 5 mps 771 mmHg 60%
    15:00 +15°C° 0 mm 4 mps 771 mmHg 62%
    16:00 +15°C° 0 mm 4 mps 770 mmHg 63%
    17:00 +14°C° 0 mm 4 mps 771 mmHg 68%
    18:00 +13°C° 0 mm 4 mps 771 mmHg 73%
    19:00 +11°C° 0 mm 4 mps 771 mmHg 78%
    20:00 +11°C° 0 mm 4 mps 771 mmHg 78%
    21:00 +11°C° 0 mm 4 mps 771 mmHg 78%
    22:00 +11°C° 0 mm 4 mps 771 mmHg 77%
    23:00 +11°C° 0 mm 4 mps 771 mmHg 77%

    28 June, Friday

    Time Temperature Precipitation Wind Pressure Humidity
    00:00 +10°C° 0 mm 5 mps 771 mmHg 77%
    01:00 +10°C° 0 mm 5 mps 771 mmHg 76%
    02:00 +10°C° 0 mm 5 mps 771 mmHg 76%
    03:00 +10°C° 0 mm 5 mps 770 mmHg 75%
    04:00 +10°C° 0 mm 6 mps 770 mmHg 75%
    05:00 +9°C° 0 mm 6 mps 770 mmHg 74%
    06:00 +9°C° 0 mm 6 mps 770 mmHg 74%
    07:00 +9°C° 0 mm 6 mps 771 mmHg 73%
    08:00 +10°C° 0 mm 6 mps 771 mmHg 69%
    09:00 +11°C° 0 mm 6 mps 770 mmHg 65%
    10:00 +13°C° 0 mm 6 mps 770 mmHg 61%
    11:00 +14°C° 0 mm 6 mps 770 mmHg 59%
    12:00 +15°C° 0 mm 6 mps 769 mmHg 57%
    13:00 +16°C° 0 mm 6 mps 769 mmHg 56%
    14:00 +16°C° 0 mm 5 mps 768 mmHg 58%
    15:00 +16°C° 0 mm 5 mps 768 mmHg 59%
    16:00 +16°C° 0 mm 5 mps 767 mmHg 61%
    17:00 +15°C° 0 mm 5 mps 767 mmHg 66%
    18:00 +14°C° 0 mm 5 mps 768 mmHg 70%
    19:00 +12°C° 0 mm 5 mps 768 mmHg 74%
    20:00 +12°C° 0 mm 5 mps 768 mmHg 73%
    21:00 +12°C° 0 mm 5 mps 767 mmHg 72%
    22:00 +12°C° 0 mm 5 mps 767 mmHg 71%
    23:00 +12°C° 0 mm 5 mps 767 mmHg 71%

    29 June, Saturday

    Time Temperature Precipitation Wind Pressure Humidity
    00:00 +12°C° 0 mm 5 mps 766 mmHg 70%
    01:00 +12°C° 0 mm 5 mps 766 mmHg 70%
    02:00 +11°C° 0 mm 6 mps 765 mmHg 70%
    03:00 +13°C° 0 mm 6 mps 764 mmHg 70%
    04:00 +12°C° 0 mm 7 mps 763 mmHg 70%
    05:00 +12°C° 0 mm 7 mps 763 mmHg 72%
    06:00 +12°C° 0 mm 7 mps 762 mmHg 73%
    07:00 +12°C° 0 mm 7 mps 762 mmHg 75%
    08:00 +12°C° 0.1 mm 8 mps 761 mmHg 74%
    09:00 +13°C° 0.1 mm 8 mps 760 mmHg 73%
    10:00 +13°C° 0.1 mm 9 mps 759 mmHg 72%
    11:00 +13°C° 0.8 mm 9 mps 759 mmHg 75%
    12:00 +12°C° 0.8 mm 10 mps 758 mmHg 77%
    13:00 +12°C° 0.8 mm 10 mps 757 mmHg 80%
    14:00 +11°C° 2.6 mm 9 mps 756 mmHg 82%
    15:00 +11°C° 2.6 mm 8 mps 756 mmHg 83%
    16:00 +10°C° 2.6 mm 7 mps 755 mmHg 85%
    17:00 +9°C° 1.2 mm 6 mps 756 mmHg 84%
    18:00 +9°C° 1.2 mm 6 mps 756 mmHg 83%
    19:00 +9°C° 1.2 mm 5 mps 757 mmHg 81%
    20:00 +9°C° 0.5 mm 6 mps 757 mmHg 80%
    21:00 +9°C° 0.5 mm 6 mps 757 mmHg 78%
    22:00 +9°C° 0.5 mm 6 mps 758 mmHg 77%
    23:00 +8°C° 0 mm 6 mps 758 mmHg 76%

    30 June, Sunday

    Time Temperature Precipitation Wind Pressure Humidity
    00:00 +8°C° 0 mm 6 mps 759 mmHg 75%
    01:00 +7°C° 0 mm 6 mps 759 mmHg 74%
    02:00 +7°C° 0 mm 5 mps 760 mmHg 75%
    03:00 +6°C° 0 mm 5 mps 760 mmHg 75%
    04:00 +6°C° 0 mm 5 mps 760 mmHg 76%
    05:00 +6°C° 0 mm 5 mps 761 mmHg 76%
    06:00 +6°C° 0 mm 5 mps 762 mmHg 76%
    07:00 +6°C° 0 mm 5 mps 763 mmHg 76%
    08:00 +7°C° 0 mm 5 mps 763 mmHg 73%
    09:00 +8°C° 0 mm 5 mps 763 mmHg 70%
    10:00 +9°C° 0 mm 6 mps 764 mmHg 67%
    11:00 +10°C° 0 mm 5 mps 764 mmHg 64%
    12:00 +10°C° 0 mm 5 mps 764 mmHg 60%
    13:00 +12°C° 0 mm 5 mps 764 mmHg 56%
    14:00 +12°C° 0 mm 5 mps 764 mmHg 58%
    15:00 +12°C° 0 mm 4 mps 764 mmHg 60%
    16:00 +11°C° 0 mm 3 mps 764 mmHg 62%
    17:00 +11°C° 0 mm 3 mps 764 mmHg 66%
    18:00 +10°C° 0 mm 4 mps 765 mmHg 71%
    19:00 +8°C° 0 mm 4 mps 765 mmHg 75%
    20:00 +8°C° 0 mm 4 mps 765 mmHg 76%
    21:00 +8°C° 0 mm 4 mps 765 mmHg 77%
    22:00 +8°C° 0 mm 4 mps 765 mmHg 78%
    23:00 +8°C° 0 mm 4 mps 765 mmHg 79%
    Show more